Regional Weather Roundup
Issued by NWS Sioux Falls, SD

Home | Current Version | Previous Version | Graphics & Text | Print | Product List | Glossary Off
Versions: 1 2 3 4 5 6 7 8 9 10 11 12 13 14 15 16 17 18 19 20 21 22 23 24 25 26 27 28 29 30 31 32 33 34 35 36 37 38 39 40 41 42 43 44 45 46 47 48 49 50

000
ASUS43 KFSD 180210
RWRFSD

WEATHER ROUNDUP FOR SE SOUTH DAKOTA/SW MINNESOTA/NW IOWA
NATIONAL WEATHER SERVICE SIOUX FALLS SD
900 PM CDT THU APR 17 2014

NOTE: "FAIR" INDICATES FEW OR NO CLOUDS BELOW 12,000 FEET WITH NO
SIGNIFICANT WEATHER AND OR OBSTRUCTIONS TO VISIBILITY.


SDZ038>040-050-052>070-180300-
SOUTHEAST SOUTH DAKOTA

CITY           SKY/WX    TMP DP  RH WIND       PRES   REMARKS
CHAMBERLAIN      N/A     40  26  57 SE14      30.16F
HURON          CLOUDY    41  26  55 SE8       30.22F
MADISON        MIX PCPN  37  21  52 SE7       30.24S
MITCHELL       CLOUDY    44  24  45 SE8       30.23S
SIOUX FALLS    MOCLDY    40  25  55 E9        30.26R
WINNER         FAIR      40  25  55 SE17      30.11F
YANKTON        PTCLDY    45  25  45 NE7       30.25R
$$

MNZ071-072-080-081-089-090-097-098-180300-
SOUTHWEST MINNESOTA

CITY           SKY/WX    TMP DP  RH WIND       PRES   REMARKS
FAIRMONT       PTCLDY    37  28  70 N5        30.31R
JACKSON        MOCLDY    34  28  80 N6        30.29S WCI  29
LUVERNE        PTCLDY    36  28  75 NE5       30.28R
MARSHALL       PTCLDY    34  19  55 CALM      30.29R
MONTEVIDEO     CLEAR     32  19  59 CALM      30.31R
PIPESTONE      MOCLDY    34  23  64 E5        30.26R WCI  30
REDWOOD FALLS  CLEAR     34  25  69 W3        30.30S
TRACY          PTCLDY    31  26  83 CALM      30.30R
WINDOM         PTCLDY    30  28  93 N5        30.29S WCI  25
WORTHINGTON    PTCLDY    34  23  64 NE5       30.29S WCI  30
$$

IAZ001>003-012>014-020>022-031-032-NEZ013-014-SDZ071-180300-
NORTHWEST IOWA

CITY           SKY/WX    TMP DP  RH WIND       PRES   REMARKS
CHEROKEE       PTCLDY    42  28  55 NE6       30.26S
DENISON        CLEAR     43  25  49 CALM      30.25R
ESTHERVILLE    MOCLDY    35  30  82 NE5       30.28R
LE MARS        CLOUDY    46  27  46 E6        30.26R
ORANGE CITY    CLOUDY    45  27  49 NE5       30.26R
SHELDON        MOCLDY    37  28  70 E7        30.26R
SIOUX CITY     MOCLDY    48  24  39 E5        30.25S
SPENCER        MOCLDY    38  29  70 NE7       30.28R
STORM LAKE     PTCLDY    39  27  60 NE8       30.27S
$$

ABBREVIATIONS USED IN REMARKS
   TC - TEMPERATURE IN CELSIUS
  WCI - WIND CHILL INDEX
   HX - HEAT INDEX
  VSB - VISIBILITY




USA.gov is the U.S. government's official web portal to all federal, state and local government web resources and services.